Eveleth, MN

10:26 AM CDT on April 21, 2018 (GMT -0500)
Eveleth-Virginia Municipal

Weather History for KEVM - January, 2014

Change the Weather History Date:

Friday, January 31, 2014

  Actual Average Record
Temperature  
Mean Temperature -10 °F -  
Max Temperature 5 °F 22 °F 46 °F (1999)
Min Temperature -25 °F 3 °F -25 °F (2014)
Degree Days  
Heating Degree Days 75    
Moisture  
Dew Point -16 °F    
Average Humidity 67    
Maximum Humidity 85    
Minimum Humidity 51    
Precipitation  
Precipitation 0.00 in - - ()
Sea Level Pressure  
Sea Level Pressure 29.90 in    
Wind  
Wind Speed 4 mph (SW)    
Max Wind Speed 13 mph    
Max Gust Speed 17 mph    
Visibility 10 miles    
Events Snow    
Averages and records for this station are not official NWS values.
T = Trace of Precipitation, MM = Missing Value Source: NWS Daily Summary

Daily Weather History Graph

Daily Weather History Graph

Search for Another Location

Airport or City:

Astronomy

Jan. 31, 2014 Rise Set
Actual Time 7:37 AM CST 5:10 PM CST
Civil Twilight 7:04 AM CST 5:43 PM CST
Nautical Twilight 6:27 AM CST 6:20 PM CST
Astronomical Twilight 5:51 AM CST 6:56 PM CST
Moon 7:40 AM CST (1/31) 6:44 PM CST (1/31)
Length of Visible Light 10h 38m
Length of Day
9h 33m
New Moon, 1% of the Moon is Illuminated
Jan 31
New Moon
Feb 6
First Quarter
Feb 14
Full
Feb 22
Last Quarter
Mar 1
New

Hourly Weather History & Observations

Time (CST) Temp. Windchill Dew Point Humidity Pressure Visibility Wind Dir Wind Speed Gust Speed Precip Events Conditions
12:07 AM -9.4 °F -22.7 °F -18.4 °F 65% 29.89 in 10.0 mi West 5.8 mph - N/A   Clear
12:27 AM -11.2 °F -20.6 °F -18.4 °F 70% 29.89 in 10.0 mi WNW 3.5 mph - N/A   Clear
12:46 AM -11.2 °F -20.6 °F -18.4 °F 70% 29.89 in 10.0 mi West 3.5 mph - N/A   Clear
1:07 AM -13.0 °F - -18.4 °F 77% 29.89 in 10.0 mi Calm Calm - N/A   Clear
1:27 AM -13.0 °F - -20.2 °F 70% 29.90 in 10.0 mi Calm Calm - N/A   Clear
1:46 AM -14.8 °F - -22.0 °F 70% 29.90 in 10.0 mi Calm Calm - N/A   Clear
2:07 AM -16.6 °F - -22.0 °F 76% 29.90 in 10.0 mi Calm Calm - N/A   Clear
2:26 AM -14.8 °F - -22.0 °F 70% 29.91 in 10.0 mi Calm Calm - N/A   Clear
2:46 AM -16.6 °F - -22.0 °F 76% 29.91 in 7.0 mi Calm Calm - N/A   Clear
3:07 AM -20.2 °F -30.9 °F -27.4 °F 69% 29.91 in 10.0 mi WNW 3.5 mph - N/A Snow Light Snow
3:26 AM -16.6 °F - -23.8 °F 70% 29.90 in 10.0 mi Calm Calm - N/A Snow Light Snow
3:46 AM -18.4 °F - -23.8 °F 76% 29.92 in 10.0 mi Calm Calm - N/A Snow Light Snow
4:06 AM -16.6 °F - -23.8 °F 70% 29.91 in 10.0 mi Calm Calm - N/A Snow Light Snow
4:27 AM -16.6 °F -26.8 °F -22.0 °F 76% 29.92 in 10.0 mi WSW 3.5 mph - N/A Snow Light Snow
4:46 AM -18.4 °F - -25.6 °F 70% 29.92 in 10.0 mi Calm Calm - N/A   Clear
5:06 AM -20.2 °F - -27.4 °F 69% 29.91 in 10.0 mi Calm Calm - N/A   Clear
5:27 AM -22.0 °F - -27.4 °F 76% 29.92 in 10.0 mi Calm Calm - N/A   Clear
5:47 AM -23.8 °F - -31.0 °F 69% 29.92 in 10.0 mi Calm Calm - N/A   Clear
6:06 AM -18.4 °F - -25.6 °F 70% 29.93 in 10.0 mi Calm Calm - N/A   Clear
6:26 AM -23.8 °F - -31.0 °F 69% 29.93 in 10.0 mi Calm Calm - N/A   Clear
6:47 AM -22.0 °F - -29.2 °F 69% 29.93 in 10.0 mi Calm Calm - N/A   Clear
7:06 AM -22.0 °F - -29.2 °F 69% 29.93 in 10.0 mi Calm Calm - N/A   Clear
7:26 AM -23.8 °F - -31.0 °F 69% 29.93 in 10.0 mi Calm Calm - N/A   Clear
7:47 AM -25.6 °F - -32.8 °F 69% 29.94 in 10.0 mi Calm Calm - N/A   Clear
8:06 AM -25.6 °F - -32.8 °F 69% 29.93 in 10.0 mi Calm Calm - N/A   Clear
8:26 AM -20.2 °F - -27.4 °F 69% 29.93 in 10.0 mi Calm Calm - N/A   Clear
8:47 AM -16.6 °F - -23.8 °F 70% 29.93 in 10.0 mi Calm Calm - N/A   Clear
9:06 AM -16.6 °F - -23.8 °F 70% 29.93 in 10.0 mi Calm Calm - N/A   Clear
9:26 AM -14.8 °F -29.1 °F -20.2 °F 77% 29.93 in 10.0 mi WSW 5.8 mph - N/A   Clear
9:47 AM -9.4 °F -25.6 °F -16.6 °F 71% 29.94 in 10.0 mi SW 8.1 mph - N/A   Clear
10:06 AM -7.6 °F -20.6 °F -14.8 °F 71% 29.94 in 10.0 mi WSW 5.8 mph - N/A   Clear
10:26 AM -7.6 °F -23.4 °F -14.8 °F 71% 29.94 in 10.0 mi WSW 8.1 mph - N/A   Clear
10:46 AM -5.8 °F -21.2 °F -13.0 °F 71% 29.93 in 10.0 mi SW 8.1 mph - N/A   Clear
11:07 AM -2.2 °F -16.8 °F -11.2 °F 66% 29.93 in 10.0 mi SW 8.1 mph - N/A   Clear
11:26 AM -2.2 °F -18.0 °F -13.0 °F 60% 29.92 in 10.0 mi WSW 9.2 mph - N/A   Clear
11:46 AM -0.4 °F -15.7 °F -13.0 °F 55% 29.92 in 10.0 mi SW 9.2 mph - N/A   Clear
12:07 PM -0.4 °F -15.7 °F -13.0 °F 55% 29.91 in 10.0 mi SW 9.2 mph - N/A   Clear
12:26 PM -0.4 °F -17.6 °F -11.2 °F 60% 29.92 in 10.0 mi SW 11.5 mph 16.1 mph N/A   Clear
12:47 PM 1.4 °F -14.5 °F -13.0 °F 51% 29.91 in 10.0 mi SW 10.4 mph - N/A   Clear
1:07 PM 1.4 °F -16.1 °F -11.2 °F 56% 29.90 in 10.0 mi SW 12.7 mph 16.1 mph N/A   Clear
1:26 PM 3.2 °F -13.1 °F -9.4 °F 56% 29.90 in 10.0 mi WSW 11.5 mph - N/A   Clear
1:47 PM 3.2 °F -13.1 °F -9.4 °F 56% 29.90 in 10.0 mi SW 11.5 mph - N/A   Clear
2:07 PM 3.2 °F -11.3 °F -9.4 °F 56% 29.90 in 10.0 mi SW 9.2 mph 16.1 mph N/A   Clear
2:26 PM 3.2 °F -11.3 °F -9.4 °F 56% 29.89 in 10.0 mi SW 9.2 mph - N/A   Clear
2:47 PM 3.2 °F -11.3 °F -9.4 °F 56% 29.89 in 10.0 mi WSW 9.2 mph - N/A   Clear
3:06 PM 3.2 °F -13.9 °F -9.4 °F 56% 29.89 in 10.0 mi SW 12.7 mph 17.3 mph N/A   Clear
3:26 PM 5.0 °F -8.1 °F -9.4 °F 52% 29.89 in 10.0 mi SW 8.1 mph - N/A   Clear
3:47 PM 5.0 °F -10.8 °F -9.4 °F 52% 29.88 in 10.0 mi SSW 11.5 mph - N/A   Clear
4:06 PM 5.0 °F -10.0 °F -9.4 °F 52% 29.88 in 10.0 mi SSW 10.4 mph - N/A   Clear
4:27 PM 3.2 °F -13.9 °F -9.4 °F 56% 29.88 in 7.0 mi SSW 12.7 mph - N/A   Clear
4:46 PM 3.2 °F -11.3 °F -9.4 °F 56% 29.88 in 4.0 mi SSW 9.2 mph - N/A   Haze
5:07 PM 3.2 °F -9.1 °F -9.4 °F 56% 29.88 in 10.0 mi SSW 6.9 mph - N/A   Clear
5:27 PM 1.4 °F -9.9 °F -11.2 °F 56% 29.88 in 10.0 mi SSW 5.8 mph - N/A   Clear
5:46 PM -0.4 °F -12.0 °F -11.2 °F 60% 29.87 in 10.0 mi South 5.8 mph - N/A   Clear
6:06 PM -0.4 °F -10.4 °F -9.4 °F 66% 29.87 in 10.0 mi SSW 4.6 mph - N/A   Clear
6:26 PM -0.4 °F - -13.0 °F 55% 29.87 in 10.0 mi Calm Calm - N/A   Clear
6:46 PM -2.2 °F -10.4 °F -11.2 °F 66% 29.87 in 10.0 mi South 3.5 mph - N/A   Clear
7:07 PM -2.2 °F -10.4 °F -11.2 °F 66% 29.87 in 10.0 mi SSW 3.5 mph - N/A   Clear
7:26 PM -2.2 °F -14.2 °F -9.4 °F 71% 29.87 in 10.0 mi SSW 5.8 mph - N/A   Clear
7:47 PM -2.2 °F -14.2 °F -9.4 °F 71% 29.88 in 10.0 mi SSW 5.8 mph - N/A   Clear
8:07 PM -0.4 °F -13.4 °F -9.4 °F 66% 29.88 in 10.0 mi South 6.9 mph - N/A   Clear
8:26 PM -0.4 °F -10.4 °F -9.4 °F 66% 29.88 in 10.0 mi SSW 4.6 mph - N/A   Clear
8:47 PM -0.4 °F -12.0 °F -9.4 °F 66% 29.89 in 10.0 mi SSW 5.8 mph - N/A   Clear
9:07 PM -0.4 °F -14.7 °F -7.6 °F 72% 29.89 in 10.0 mi SSW 8.1 mph - N/A   Clear
9:26 PM -2.2 °F -14.2 °F -7.6 °F 78% 29.89 in 10.0 mi SSW 5.8 mph - N/A   Clear
9:46 PM -2.2 °F -10.4 °F -7.6 °F 78% 29.88 in 10.0 mi SSW 3.5 mph - N/A   Clear
10:07 PM -4.0 °F -12.4 °F -7.6 °F 85% 29.88 in 10.0 mi SW 3.5 mph - N/A   Clear
10:26 PM -4.0 °F -12.4 °F -9.4 °F 78% 29.88 in 10.0 mi SSW 3.5 mph - N/A   Clear
10:46 PM -4.0 °F -12.4 °F -9.4 °F 78% 29.88 in 10.0 mi SSW 3.5 mph - N/A   Clear
11:07 PM -5.8 °F - -11.2 °F 77% 29.88 in 10.0 mi Calm Calm - N/A   Clear
11:26 PM -9.4 °F - -14.8 °F 77% 29.89 in 10.0 mi Calm Calm - N/A   Clear
11:46 PM -7.6 °F - -13.0 °F 77% 29.90 in 10.0 mi Calm Calm - N/A   Mostly Cloudy